Weather History for Mandan, ND

Change the Weather History Date:

Friday, October 5, 2012

  Actual Average (KBIS) Record (KBIS)
Temperature  
Mean Temperature 30 °F 50 °F  
Max Temperature 39 °F 63 °F 90 °F (1949)
Min Temperature 21 °F 37 °F 18 °F (1935)
Degree Days  
Heating Degree Days 35 15  
Month to date heating degree days 72  
Since 1 July heating degree days 358  
Cooling Degree Days 0 0  
Month to date cooling degree days 0  
Year to date cooling degree days 519  
Moisture  
Dew Point 23 °F    
Average Humidity 78    
Maximum Humidity 100    
Minimum Humidity 45    
Precipitation  
Precipitation 0.00 in 0.04 in 1.12 in (1972)
Month to date precipitation 0.22  
Year to date precipitation 15.62  
Snow  
Snow 0.00 in 0.00 in 0.90 in (2005)
Month to date snowfall 0.1  
Since 1 July snowfall 0.3  
Since 1 September snowfall 0.3  
Snow Depth -    
Sea Level Pressure  
Sea Level Pressure 30.34 in    
Wind  
Wind Speed 12 mph (NW)    
Max Wind Speed 21 mph    
Max Gust Speed 28 mph    
Visibility 10 miles    
Events      
T = Trace of Precipitation, MM = Missing Value Source: NWS Daily Summary

Daily Weather History Graph

Daily Weather History Graph

Search for Another Location

Airport:

Trip Planner

Search our weather history database for the weather conditions in past years. The results will help you decide how hot, cold, wet, or windy it might be!

Date:

Astronomy

Oct. 05, 2012 Rise Set
Actual Time 7:48 AM CDT 7:14 PM CDT
Civil Twilight 7:18 AM CDT 7:44 PM CDT
Nautical Twilight 6:42 AM CDT 8:19 PM CDT
Astronomical Twilight 6:07 AM CDT 8:55 PM CDT
Moon 10:22 PM CDT (10/5) 1:15 PM CDT (10/5)
Length of Visible Light 12h 26m
Length of Day
11h 26m
Waning Gibbous, 74% of the Moon is Illuminated
Oct 5
Waning Gibbous
Oct 8
Last Quarter
Oct 15
New
Oct 21
First Quarter
Oct 29
Full

Hourly Weather History & Observations

Time (CDT) Temp. Windchill Dew Point Humidity Pressure Visibility Wind Dir Wind Speed Gust Speed Precip Events Conditions
12:15 AM 32.0 °F 23.6 °F 28.4 °F 87% 30.32 in 10.0 mi WNW 10.4 mph - N/A   Clear
12:35 AM 30.2 °F 21.3 °F 26.6 °F 86% 30.32 in 10.0 mi WNW 10.4 mph - N/A   Clear
12:55 AM 28.4 °F 18.5 °F 26.6 °F 93% 30.32 in 10.0 mi WNW 11.5 mph - N/A   Clear
1:15 AM 28.4 °F 18.0 °F 26.6 °F 93% 30.32 in 10.0 mi WNW 12.7 mph - N/A   Clear
1:35 AM 30.2 °F 20.2 °F 26.6 °F 86% 30.32 in 10.0 mi NW 12.7 mph - N/A   Clear
1:55 AM 28.4 °F 18.5 °F 26.6 °F 93% 30.32 in 10.0 mi WNW 11.5 mph - N/A   Clear
2:15 AM 26.6 °F 17.5 °F 26.6 °F 100% 30.32 in 10.0 mi WNW 9.2 mph - N/A   Clear
2:35 AM 26.6 °F 17.5 °F 26.6 °F 100% 30.32 in 10.0 mi NW 9.2 mph - N/A   Clear
2:55 AM 26.6 °F 17.5 °F 26.6 °F 100% 30.32 in 10.0 mi NW 9.2 mph - N/A   Clear
3:15 AM 26.6 °F 16.8 °F 26.6 °F 100% 30.31 in 10.0 mi NW 10.4 mph - N/A   Clear
3:35 AM 26.6 °F 17.5 °F 24.8 °F 93% 30.31 in 10.0 mi NW 9.2 mph - N/A   Clear
3:55 AM 24.8 °F 15.3 °F 24.8 °F 100% 30.31 in 10.0 mi NW 9.2 mph - N/A   Clear
4:15 AM 24.8 °F 15.3 °F 24.8 °F 100% 30.31 in 10.0 mi NW 9.2 mph - N/A   Clear
4:35 AM 24.8 °F 16.1 °F 24.8 °F 100% 30.32 in 10.0 mi NW 8.1 mph - N/A   Clear
4:55 AM 24.8 °F 15.3 °F 24.8 °F 100% 30.32 in 10.0 mi NW 9.2 mph - N/A   Clear
5:15 AM 24.8 °F 16.1 °F 24.8 °F 100% 30.32 in 10.0 mi NW 8.1 mph - N/A   Clear
5:35 AM 24.8 °F 15.3 °F 24.8 °F 100% 30.32 in 10.0 mi NW 9.2 mph - N/A   Clear
5:55 AM 24.8 °F 16.1 °F 24.8 °F 100% 30.32 in 10.0 mi NW 8.1 mph - N/A   Clear
6:15 AM 24.8 °F 16.1 °F 24.8 °F 100% 30.32 in 10.0 mi NW 8.1 mph - N/A   Clear
6:35 AM 23.0 °F 13.9 °F 23.0 °F 100% 30.32 in 10.0 mi NW 8.1 mph - N/A   Clear
6:55 AM 23.0 °F 12.4 °F 23.0 °F 100% 30.32 in 10.0 mi NW 10.4 mph - N/A   Clear
7:15 AM 24.8 °F 14.6 °F 24.8 °F 100% 30.33 in 10.0 mi NW 10.4 mph - N/A   Partly Cloudy
7:35 AM 23.0 °F 13.9 °F 23.0 °F 100% 30.33 in 10.0 mi WNW 8.1 mph - N/A   Partly Cloudy
7:55 AM 21.2 °F 11.7 °F 21.2 °F 100% 30.34 in 10.0 mi WNW 8.1 mph - N/A   Clear
8:15 AM 21.2 °F 12.6 °F 21.2 °F 100% 30.35 in 10.0 mi WNW 6.9 mph - N/A   Clear
8:35 AM 24.8 °F 14.6 °F 23.0 °F 93% 30.35 in 10.0 mi NW 10.4 mph - N/A   Clear
8:55 AM 26.6 °F 17.5 °F 24.8 °F 93% 30.35 in 10.0 mi NW 9.2 mph - N/A   Clear
9:15 AM 26.6 °F 17.5 °F 24.8 °F 93% 30.35 in 10.0 mi NW 9.2 mph - N/A   Clear
9:35 AM 26.6 °F 15.7 °F 24.8 °F 93% 30.35 in 10.0 mi NNW 12.7 mph - N/A   Clear
9:55 AM 28.4 °F 18.5 °F 24.8 °F 86% 30.36 in 10.0 mi NNW 11.5 mph - N/A   Clear
10:15 AM 28.4 °F 16.6 °F 24.8 °F 86% 30.36 in 10.0 mi NNW 16.1 mph 21.9 mph N/A   Mostly Cloudy
10:35 AM 30.2 °F 17.4 °F 23.0 °F 75% 30.36 in 10.0 mi NNW 20.7 mph 27.6 mph N/A   Overcast
10:55 AM 28.4 °F 16.2 °F 23.0 °F 80% 30.36 in 10.0 mi NNW 17.3 mph 25.3 mph N/A   Overcast
11:15 AM 30.2 °F 17.8 °F 23.0 °F 75% 30.37 in 10.0 mi NNW 19.6 mph 24.2 mph N/A   Overcast
11:35 AM 32.0 °F 20.1 °F 23.0 °F 69% 30.37 in 10.0 mi NNW 19.6 mph 25.3 mph N/A   Overcast
11:55 AM 32.0 °F 20.1 °F 23.0 °F 69% 30.36 in 10.0 mi NNW 19.6 mph 25.3 mph N/A   Mostly Cloudy
12:15 PM 32.0 °F 20.1 °F 21.2 °F 64% 30.36 in 10.0 mi NNW 19.6 mph 26.5 mph N/A   Partly Cloudy
12:35 PM 33.8 °F 22.8 °F 21.2 °F 60% 30.36 in 10.0 mi NNW 18.4 mph 26.5 mph N/A   Scattered Clouds
12:55 PM 33.8 °F 22.8 °F 21.2 °F 60% 30.36 in 10.0 mi NNW 18.4 mph 27.6 mph N/A   Mostly Cloudy
1:15 PM 35.6 °F 24.8 °F 21.2 °F 56% 30.36 in 10.0 mi NW 19.6 mph 27.6 mph N/A   Scattered Clouds
1:35 PM 35.6 °F 25.2 °F 21.2 °F 56% 30.36 in 10.0 mi NNW 18.4 mph 25.3 mph N/A   Partly Cloudy
1:55 PM 35.6 °F 24.8 °F 21.2 °F 56% 30.36 in 10.0 mi NNW 19.6 mph 26.5 mph N/A   Partly Cloudy
2:15 PM 35.6 °F 26.2 °F 21.2 °F 56% 30.35 in 10.0 mi NNW 15.0 mph 26.5 mph N/A   Partly Cloudy
2:35 PM 37.4 °F 28.2 °F 19.4 °F 48% 30.34 in 10.0 mi NNW 16.1 mph 26.5 mph N/A   Clear
2:55 PM 37.4 °F 27.8 °F 19.4 °F 48% 30.34 in 10.0 mi NNW 17.3 mph 26.5 mph N/A   Clear
3:15 PM 37.4 °F 28.2 °F 21.2 °F 52% 30.33 in 10.0 mi NNW 16.1 mph 26.5 mph N/A   Partly Cloudy
3:35 PM 39.2 °F 30.5 °F 21.2 °F 49% 30.33 in 10.0 mi NW 16.1 mph 24.2 mph N/A   Partly Cloudy
3:55 PM 39.2 °F 30.5 °F 21.2 °F 49% 30.33 in 10.0 mi NNW 16.1 mph 21.9 mph N/A   Partly Cloudy
4:15 PM 37.4 °F 27.2 °F 21.2 °F 52% 30.33 in 10.0 mi North 19.6 mph 23.0 mph N/A   Partly Cloudy
4:35 PM 39.2 °F 30.2 °F 19.4 °F 45% 30.33 in 10.0 mi NNW 17.3 mph 25.3 mph N/A   Clear
4:55 PM 37.4 °F 28.5 °F 19.4 °F 48% 30.33 in 10.0 mi NNW 15.0 mph 23.0 mph N/A   Clear
5:15 PM 37.4 °F 28.2 °F 21.2 °F 52% 30.34 in 10.0 mi NNW 16.1 mph 21.9 mph N/A   Clear
5:35 PM 35.6 °F 25.2 °F 19.4 °F 52% 30.34 in 10.0 mi NNW 18.4 mph - N/A   Clear
5:55 PM 35.6 °F 25.2 °F 17.6 °F 48% 30.34 in 10.0 mi North 18.4 mph 24.2 mph N/A   Clear
6:15 PM 35.6 °F 26.6 °F 17.6 °F 48% 30.34 in 10.0 mi North 13.8 mph 21.9 mph N/A   Clear
6:35 PM 35.6 °F 26.6 °F 19.4 °F 52% 30.35 in 10.0 mi North 13.8 mph - N/A   Clear
6:55 PM 33.8 °F 24.8 °F 19.4 °F 56% 30.35 in 10.0 mi NNW 12.7 mph - N/A   Clear
7:15 PM 32.0 °F 24.2 °F 19.4 °F 60% 30.36 in 10.0 mi NW 9.2 mph - N/A   Clear
7:35 PM 30.2 °F 23.4 °F 21.2 °F 69% 30.36 in 10.0 mi NW 6.9 mph - N/A   Clear
7:55 PM 26.6 °F 20.0 °F 19.4 °F 74% 30.36 in 10.0 mi WNW 5.8 mph - N/A   Mostly Cloudy
8:15 PM 26.6 °F 18.2 °F 19.4 °F 74% 30.37 in 10.0 mi WNW 8.1 mph - N/A   Overcast
8:35 PM 30.2 °F 23.4 °F 23.0 °F 75% 30.37 in 10.0 mi NW 6.9 mph - N/A   Overcast
8:55 PM 30.2 °F 22.6 °F 23.0 °F 75% 30.37 in 10.0 mi NW 8.1 mph - N/A   Overcast
9:15 PM 30.2 °F 24.3 °F 23.0 °F 75% 30.38 in 10.0 mi NNW 5.8 mph - N/A   Overcast
9:35 PM 28.4 °F 21.2 °F 23.0 °F 80% 30.39 in 10.0 mi North 6.9 mph - N/A   Scattered Clouds
9:55 PM 28.4 °F 19.7 °F 24.8 °F 86% 30.39 in 10.0 mi North 9.2 mph - N/A   Partly Cloudy
10:15 PM 28.4 °F 19.1 °F 24.8 °F 86% 30.39 in 10.0 mi North 10.4 mph - N/A   Partly Cloudy
10:35 PM 26.6 °F 19.1 °F 24.8 °F 93% 30.39 in 10.0 mi North 6.9 mph - N/A   Clear
10:55 PM 26.6 °F 19.1 °F 24.8 °F 93% 30.39 in 10.0 mi NNW 6.9 mph - N/A   Mostly Cloudy
11:55 PM 26.6 °F 19.1 °F 24.8 °F 93% 30.39 in 10.0 mi NNW 6.9 mph - N/A   Overcast